Darstellungsparameter: Aktuell verwendete Einstellungen:
Skalierung der Graphiken ... ?
xyx+y,   Skalierungsfaktor:      Skalierung: Modus: x, Faktor: 1
Darstellungszeitraum ... ?
Vom - - bis: - -   Zeitraum: 16.08.2019 - 18.08.2019
Min/Max/Avg-Anzeige ... ?
Zeige MMA aktuell
Zeige MMA Monat
Zeige MMA alles
Zeige --A aktuell
Zeige --A Monat
Zeige --A alles
Keine MMA-Anzeige
MMA:
Average (ber die Originaldaten)
MMA-Basis: 23.02.2003 - 19.08.2019
Quicknavigation für Darstellung... ?
Tage:      1T, 2T, 3T, 5T -1T -2T -3T -5T +1T +2T +3T +5T
Wochen: 1W, 2W, 3W -1W -2W -3W +1W +2W +3W
Monate: 1M, 3M, 6M -1M -3M -6M +1M +3M +6M
Jahre:    1J, 3J, 5J, 10J -1J -3J -5J -10J +1J +3J +5J +10J
Nutze für die Darstellung ... ?
Originaldaten oder Mittelwerte auf ...
Stundenbasis Tagesbasis Wochenbasis
Monatsbasis Jahresbasis      Datenbasis: Original-Daten
Darstellen als:
Statistik (Auto) Statistik J:M      Darstellung:
Zur Graphik,    zurück zur Übersicht aller Sensoren.
 
Tabellarische Datenbersicht: ?
 
Sensor: Nr:Datum:Temp:Feuchte:Taupunkt:
Aussen-T/F 1 16-08-2019 00:00:00 15.4 C 95 % 14.6 C
2 16-08-2019 00:05:00 15.4 C 95 % 14.6 C
3 16-08-2019 00:10:00 15.4 C 95 % 14.6 C
4 16-08-2019 00:15:00 15.4 C 96 % 14.77 C
5 16-08-2019 00:20:00 15.4 C 95 % 14.6 C
6 16-08-2019 00:25:00 15.4 C 95 % 14.6 C
7 16-08-2019 00:30:00 15.4 C 95 % 14.6 C
8 16-08-2019 00:35:00 15.3 C 95 % 14.5 C
9 16-08-2019 00:40:00 15.2 C 95 % 14.4 C
10 16-08-2019 00:45:00 15.2 C 95 % 14.4 C
11 16-08-2019 00:50:00 15.1 C 95 % 14.31 C
12 16-08-2019 00:55:00 14.9 C 95 % 14.11 C
13 16-08-2019 01:00:00 14.8 C 95 % 14.01 C
14 16-08-2019 01:05:00 14.8 C 95 % 14.01 C
15 16-08-2019 01:10:00 14.7 C 95 % 13.91 C
16 16-08-2019 01:15:00 14.7 C 95 % 13.91 C
17 16-08-2019 01:20:00 14.7 C 95 % 13.91 C
18 16-08-2019 01:25:00 14.6 C 95 % 13.81 C
19 16-08-2019 01:30:00 14.6 C 95 % 13.81 C
20 16-08-2019 01:35:00 14.6 C 95 % 13.81 C
21 16-08-2019 01:40:00 14.6 C 95 % 13.81 C
22 16-08-2019 01:45:00 14.5 C 96 % 13.87 C
23 16-08-2019 01:50:00 14.5 C 96 % 13.87 C
24 16-08-2019 01:55:00 14.5 C 96 % 13.87 C
25 16-08-2019 02:00:00 14.5 C 96 % 13.87 C
Sensor: Nr:Datum:Temp:Feuchte:Taupunkt:
Aussen-T/F 26 16-08-2019 02:05:00 14.5 C 96 % 13.87 C
27 16-08-2019 02:10:00 14.5 C 96 % 13.87 C
28 16-08-2019 02:15:00 14.6 C 96 % 13.97 C
29 16-08-2019 02:20:00 14.6 C 96 % 13.97 C
30 16-08-2019 02:25:00 14.6 C 96 % 13.97 C
31 16-08-2019 02:30:00 14.6 C 96 % 13.97 C
32 16-08-2019 02:35:00 14.6 C 96 % 13.97 C
33 16-08-2019 02:40:00 14.6 C 96 % 13.97 C
34 16-08-2019 02:45:00 14.6 C 96 % 13.97 C
35 16-08-2019 02:50:00 14.6 C 96 % 13.97 C
36 16-08-2019 02:55:00 14.6 C 96 % 13.97 C
37 16-08-2019 03:00:00 14.6 C 96 % 13.97 C
38 16-08-2019 03:05:00 14.6 C 96 % 13.97 C
39 16-08-2019 03:10:00 14.6 C 96 % 13.97 C
40 16-08-2019 03:15:00 14.6 C 96 % 13.97 C
41 16-08-2019 03:20:00 14.6 C 96 % 13.97 C
42 16-08-2019 03:25:00 14.7 C 96 % 14.07 C
43 16-08-2019 03:30:00 14.7 C 96 % 14.07 C
44 16-08-2019 03:35:00 14.7 C 96 % 14.07 C
45 16-08-2019 03:40:00 14.7 C 96 % 14.07 C
46 16-08-2019 03:45:00 14.7 C 96 % 14.07 C
47 16-08-2019 03:50:00 14.6 C 96 % 13.97 C
48 16-08-2019 03:55:00 14.6 C 96 % 13.97 C
49 16-08-2019 04:00:00 14.6 C 96 % 13.97 C
50 16-08-2019 04:05:00 14.6 C 96 % 13.97 C
Sensor: Nr:Datum:Temp:Feuchte:Taupunkt:
Aussen-T/F 51 16-08-2019 04:10:00 14.5 C 96 % 13.87 C
52 16-08-2019 04:15:00 14.4 C 96 % 13.77 C
53 16-08-2019 04:20:00 14.3 C 96 % 13.67 C
54 16-08-2019 04:25:00 14.1 C 96 % 13.47 C
55 16-08-2019 04:30:00 14 C 96 % 13.37 C
56 16-08-2019 04:35:00 13.8 C 96 % 13.17 C
57 16-08-2019 04:40:00 13.8 C 96 % 13.17 C
58 16-08-2019 04:45:00 13.7 C 96 % 13.07 C
59 16-08-2019 04:50:00 13.6 C 96 % 12.97 C
60 16-08-2019 04:55:00 13.6 C 96 % 12.97 C
61 16-08-2019 05:00:00 13.6 C 96 % 12.97 C
62 16-08-2019 05:05:00 13.5 C 96 % 12.87 C
63 16-08-2019 05:10:00 13.5 C 96 % 12.87 C
64 16-08-2019 05:15:00 13.6 C 96 % 12.97 C
65 16-08-2019 05:20:00 13.6 C 96 % 12.97 C
66 16-08-2019 05:25:00 13.6 C 96 % 12.97 C
67 16-08-2019 05:30:00 13.6 C 96 % 12.97 C
68 16-08-2019 05:35:00 13.6 C 96 % 12.97 C
69 16-08-2019 05:40:00 13.6 C 96 % 12.97 C
70 16-08-2019 05:45:00 13.6 C 97 % 13.13 C
71 16-08-2019 05:50:00 13.5 C 97 % 13.03 C
72 16-08-2019 05:55:00 13.6 C 97 % 13.13 C
73 16-08-2019 06:00:00 13.6 C 97 % 13.13 C
74 16-08-2019 06:05:00 13.6 C 97 % 13.13 C
75 16-08-2019 06:10:00 13.6 C 97 % 13.13 C
Sensor: Nr:Datum:Temp:Feuchte:Taupunkt:
Aussen-T/F 76 16-08-2019 06:15:00 13.6 C 97 % 13.13 C
77 16-08-2019 06:20:00 13.6 C 97 % 13.13 C
78 16-08-2019 06:25:00 13.6 C 97 % 13.13 C
79 16-08-2019 06:30:00 13.6 C 97 % 13.13 C
80 16-08-2019 06:35:00 13.7 C 97 % 13.23 C
81 16-08-2019 06:40:00 13.8 C 97 % 13.33 C
82 16-08-2019 06:45:00 13.8 C 97 % 13.33 C
83 16-08-2019 06:50:00 13.9 C 97 % 13.43 C
84 16-08-2019 06:55:00 13.9 C 97 % 13.43 C
85 16-08-2019 07:00:00 14.1 C 97 % 13.63 C
86 16-08-2019 07:05:00 14.1 C 97 % 13.63 C
87 16-08-2019 07:10:00 14.1 C 97 % 13.63 C
88 16-08-2019 07:15:00 14.1 C 97 % 13.63 C
89 16-08-2019 07:20:00 14.1 C 97 % 13.63 C
90 16-08-2019 07:25:00 14.2 C 97 % 13.73 C
91 16-08-2019 07:30:00 14.2 C 97 % 13.73 C
92 16-08-2019 07:35:00 14.2 C 96 % 13.57 C
93 16-08-2019 07:40:00 14.2 C 96 % 13.57 C
94 16-08-2019 07:45:00 14.3 C 96 % 13.67 C
95 16-08-2019 07:50:00 14.3 C 96 % 13.67 C
96 16-08-2019 07:55:00 14.3 C 96 % 13.67 C
97 16-08-2019 08:00:00 14.3 C 96 % 13.67 C
98 16-08-2019 08:05:00 14.3 C 96 % 13.67 C
99 16-08-2019 08:10:00 14.3 C 96 % 13.67 C
100 16-08-2019 08:15:00 14.3 C 96 % 13.67 C
Sensor: Nr:Datum:Temp:Feuchte:Taupunkt:
Aussen-T/F 101 16-08-2019 08:20:00 14.3 C 96 % 13.67 C
102 16-08-2019 08:25:00 14.3 C 96 % 13.67 C
103 16-08-2019 08:30:00 14.4 C 96 % 13.77 C
104 16-08-2019 08:35:00 14.4 C 95 % 13.61 C
105 16-08-2019 08:40:00 14.6 C 95 % 13.81 C
106 16-08-2019 08:45:00 14.7 C 94 % 13.74 C
107 16-08-2019 08:50:00 14.8 C 93 % 13.68 C
108 16-08-2019 08:55:00 14.8 C 92 % 13.51 C
109 16-08-2019 09:00:00 14.9 C 92 % 13.61 C
110 16-08-2019 09:05:00 15.1 C 91 % 13.64 C
111 16-08-2019 09:10:00 15.2 C 91 % 13.74 C
112 16-08-2019 09:15:00 15.3 C 91 % 13.84 C
113 16-08-2019 09:20:00 15.3 C 90 % 13.67 C
114 16-08-2019 09:25:00 15.4 C 90 % 13.77 C
115 16-08-2019 09:30:00 15.6 C 89 % 13.79 C
116 16-08-2019 09:35:00 15.7 C 89 % 13.89 C
117 16-08-2019 09:40:00 15.8 C 89 % 13.99 C
118 16-08-2019 09:45:00 16 C 89 % 14.19 C
119 16-08-2019 09:50:00 16.1 C 88 % 14.11 C
120 16-08-2019 09:55:00 16.1 C 88 % 14.11 C
121 16-08-2019 10:00:00 16.1 C 87 % 13.94 C
122 16-08-2019 10:05:00 16.1 C 87 % 13.94 C
123 16-08-2019 10:10:00 16.1 C 86 % 13.76 C
124 16-08-2019 10:15:00 16.2 C 87 % 14.03 C
125 16-08-2019 10:20:00 16.2 C 87 % 14.03 C
Sensor: Nr:Datum:Temp:Feuchte:Taupunkt:
Aussen-T/F 126 16-08-2019 10:25:00 16.3 C 86 % 13.95 C
127 16-08-2019 10:30:00 16.3 C 85 % 13.77 C
128 16-08-2019 10:35:00 16.2 C 85 % 13.68 C
129 16-08-2019 10:40:00 16.3 C 85 % 13.77 C
130 16-08-2019 10:45:00 16.4 C 85 % 13.87 C
131 16-08-2019 10:50:00 16.4 C 85 % 13.87 C
132 16-08-2019 10:55:00 16.6 C 84 % 13.89 C
133 16-08-2019 11:00:00 16.7 C 84 % 13.98 C
134 16-08-2019 11:05:00 16.7 C 84 % 13.98 C
135 16-08-2019 11:10:00 16.7 C 84 % 13.98 C
136 16-08-2019 11:15:00 16.8 C 84 % 14.08 C
137 16-08-2019 11:20:00 16.9 C 83 % 14 C
138 16-08-2019 11:25:00 17.1 C 83 % 14.19 C
139 16-08-2019 11:30:00 17.1 C 82 % 14 C
140 16-08-2019 11:35:00 17.2 C 83 % 14.29 C
141 16-08-2019 11:40:00 17.3 C 81 % 14.01 C
142 16-08-2019 11:45:00 17.4 C 81 % 14.11 C
143 16-08-2019 11:50:00 17.6 C 80 % 14.11 C
144 16-08-2019 11:55:00 17.7 C 80 % 14.21 C
145 16-08-2019 12:00:00 17.8 C 80 % 14.31 C
146 16-08-2019 12:05:00 17.8 C 78 % 13.91 C
147 16-08-2019 12:10:00 17.9 C 79 % 14.21 C
148 16-08-2019 12:15:00 18 C 78 % 14.11 C
149 16-08-2019 12:20:00 18.2 C 78 % 14.3 C
150 16-08-2019 12:25:00 18.3 C 76 % 14 C
Sensor: Nr:Datum:Temp:Feuchte:Taupunkt:
Aussen-T/F 151 16-08-2019 12:30:00 18.5 C 76 % 14.19 C
152 16-08-2019 12:35:00 18.7 C 76 % 14.39 C
153 16-08-2019 12:40:00 18.8 C 75 % 14.28 C
154 16-08-2019 12:45:00 18.9 C 74 % 14.17 C
155 16-08-2019 12:50:00 19.1 C 74 % 14.36 C
156 16-08-2019 12:55:00 19.2 C 73 % 14.25 C
157 16-08-2019 13:00:00 19.3 C 72 % 14.13 C
158 16-08-2019 13:05:00 19.4 C 72 % 14.22 C
159 16-08-2019 13:10:00 19.4 C 70 % 13.79 C
160 16-08-2019 13:15:00 19.5 C 71 % 14.1 C
161 16-08-2019 13:20:00 19.6 C 70 % 13.98 C
162 16-08-2019 13:25:00 19.7 C 70 % 14.08 C
163 16-08-2019 13:30:00 19.7 C 71 % 14.3 C
164 16-08-2019 13:35:00 19.8 C 70 % 14.17 C
165 16-08-2019 13:40:00 19.8 C 71 % 14.39 C
166 16-08-2019 13:45:00 19.8 C 71 % 14.39 C
167 16-08-2019 13:50:00 19.9 C 70 % 14.27 C
168 16-08-2019 13:55:00 19.9 C 71 % 14.49 C
169 16-08-2019 14:00:00 19.9 C 71 % 14.49 C
170 16-08-2019 14:05:00 19.9 C 69 % 14.05 C
171 16-08-2019 14:10:00 19.9 C 69 % 14.05 C
172 16-08-2019 14:15:00 20.1 C 69 % 14.24 C
173 16-08-2019 14:20:00 20.2 C 69 % 14.33 C
174 16-08-2019 14:25:00 20.2 C 68 % 14.11 C
175 16-08-2019 14:30:00 20.4 C 67 % 14.07 C
Sensor: Nr:Datum:Temp:Feuchte:Taupunkt:
Aussen-T/F 176 16-08-2019 14:35:00 20.5 C 67 % 14.16 C
177 16-08-2019 14:40:00 20.7 C 67 % 14.36 C
178 16-08-2019 14:45:00 20.9 C 66 % 14.31 C
179 16-08-2019 14:50:00 21 C 65 % 14.17 C
180 16-08-2019 14:55:00 21.1 C 65 % 14.27 C
181 16-08-2019 15:00:00 21.3 C 65 % 14.46 C
182 16-08-2019 15:05:00 21.5 C 65 % 14.65 C
183 16-08-2019 15:10:00 21.7 C 62 % 14.1 C
184 16-08-2019 15:15:00 21.8 C 63 % 14.45 C
185 16-08-2019 15:20:00 21.8 C 60 % 13.69 C
186 16-08-2019 15:25:00 21.7 C 61 % 13.85 C
187 16-08-2019 15:30:00 21.8 C 60 % 13.69 C
188 16-08-2019 15:35:00 22.1 C 58 % 13.45 C
189 16-08-2019 15:40:00 22.3 C 61 % 14.42 C
190 16-08-2019 15:45:00 22.2 C 59 % 13.81 C
191 16-08-2019 15:50:00 22.1 C 59 % 13.72 C
192 16-08-2019 15:55:00 22.6 C 59 % 14.18 C
193 16-08-2019 16:00:00 22.7 C 56 % 13.47 C
194 16-08-2019 16:05:00 22.9 C 55 % 13.38 C
195 16-08-2019 16:10:00 23.1 C 57 % 14.12 C
196 16-08-2019 16:15:00 23.2 C 54 % 13.38 C
197 16-08-2019 16:20:00 23.4 C 59 % 14.93 C
198 16-08-2019 16:25:00 23.8 C 55 % 14.22 C
199 16-08-2019 16:30:00 24 C 54 % 14.12 C
200 16-08-2019 16:35:00 24 C 53 % 13.83 C
Sensor: Nr:Datum:Temp:Feuchte:Taupunkt:
Aussen-T/F 201 16-08-2019 16:40:00 23.9 C 54 % 14.03 C
202 16-08-2019 16:45:00 24.1 C 52 % 13.63 C
203 16-08-2019 16:50:00 24.3 C 53 % 14.11 C
204 16-08-2019 16:55:00 24.2 C 52 % 13.73 C
205 16-08-2019 17:00:00 24.2 C 51 % 13.43 C
206 16-08-2019 17:05:00 24.4 C 53 % 14.2 C
207 16-08-2019 17:10:00 24.4 C 52 % 13.91 C
208 16-08-2019 17:15:00 24.5 C 50 % 13.4 C
209 16-08-2019 17:20:00 24.5 C 51 % 13.7 C
210 16-08-2019 17:25:00 24.4 C 52 % 13.91 C
211 16-08-2019 17:30:00 24.4 C 50 % 13.31 C
212 16-08-2019 17:35:00 24.6 C 53 % 14.39 C
213 16-08-2019 17:40:00 24.7 C 51 % 13.89 C
214 16-08-2019 17:45:00 24.3 C 54 % 14.4 C
215 16-08-2019 17:50:00 24.5 C 54 % 14.58 C
216 16-08-2019 17:55:00 24.8 C 51 % 13.98 C
217 16-08-2019 18:00:00 24.8 C 55 % 15.15 C
218 16-08-2019 18:05:00 24.9 C 52 % 14.37 C
219 16-08-2019 18:10:00 24.7 C 51 % 13.89 C
220 16-08-2019 18:15:00 24.4 C 54 % 14.49 C
221 16-08-2019 18:20:00 24.6 C 52 % 14.09 C
222 16-08-2019 18:25:00 24.6 C 52 % 14.09 C
223 16-08-2019 18:30:00 24.4 C 52 % 13.91 C
224 16-08-2019 18:35:00 24.3 C 50 % 13.22 C
225 16-08-2019 18:40:00 24.1 C 52 % 13.63 C
Sensor: Nr:Datum:Temp:Feuchte:Taupunkt:
Aussen-T/F 226 16-08-2019 18:45:00 24.1 C 51 % 13.34 C
227 16-08-2019 18:50:00 24.2 C 52 % 13.73 C
228 16-08-2019 18:55:00 24.1 C 52 % 13.63 C
229 16-08-2019 19:00:00 24.1 C 54 % 14.21 C
230 16-08-2019 19:05:00 24.1 C 54 % 14.21 C
231 16-08-2019 19:10:00 24.1 C 53 % 13.93 C
232 16-08-2019 19:15:00 23.9 C 53 % 13.74 C
233 16-08-2019 19:20:00 23.7 C 53 % 13.56 C
234 16-08-2019 19:25:00 23.5 C 53 % 13.37 C
235 16-08-2019 19:30:00 23.3 C 59 % 14.84 C
236 16-08-2019 19:35:00 23.1 C 60 % 14.91 C
237 16-08-2019 19:40:00 23.1 C 65 % 16.16 C
238 16-08-2019 19:45:00 22.9 C 64 % 15.73 C
239 16-08-2019 19:50:00 22.7 C 65 % 15.78 C
240 16-08-2019 19:55:00 22.5 C 65 % 15.59 C
241 16-08-2019 20:00:00 22.1 C 67 % 15.69 C
242 16-08-2019 20:05:00 21.7 C 68 % 15.54 C
243 16-08-2019 20:10:00 21.2 C 68 % 15.06 C
244 16-08-2019 20:15:00 20.8 C 70 % 15.13 C
245 16-08-2019 20:20:00 20.4 C 71 % 14.97 C
246 16-08-2019 20:25:00 20.1 C 71 % 14.68 C
247 16-08-2019 20:30:00 19.8 C 72 % 14.61 C
248 16-08-2019 20:35:00 19.4 C 73 % 14.44 C
249 16-08-2019 20:40:00 19.2 C 73 % 14.25 C
250 16-08-2019 20:45:00 18.9 C 74 % 14.17 C
Sensor: Nr:Datum:Temp:Feuchte:Taupunkt:
Aussen-T/F 251 16-08-2019 20:50:00 18.7 C 76 % 14.39 C
252 16-08-2019 20:55:00 18.6 C 76 % 14.29 C
253 16-08-2019 21:00:00 18.4 C 78 % 14.5 C
254 16-08-2019 21:05:00 18.2 C 78 % 14.3 C
255 16-08-2019 21:10:00 18.1 C 78 % 14.21 C
256 16-08-2019 21:15:00 18 C 80 % 14.5 C
257 16-08-2019 21:20:00 17.9 C 80 % 14.4 C
258 16-08-2019 21:25:00 17.8 C 80 % 14.31 C
259 16-08-2019 21:30:00 17.7 C 81 % 14.4 C
260 16-08-2019 21:35:00 17.6 C 81 % 14.3 C
261 16-08-2019 21:40:00 17.5 C 81 % 14.2 C
262 16-08-2019 21:45:00 17.4 C 82 % 14.3 C
263 16-08-2019 21:50:00 17.3 C 82 % 14.2 C
264 16-08-2019 21:55:00 17.2 C 83 % 14.29 C
265 16-08-2019 22:00:00 17.2 C 83 % 14.29 C
266 16-08-2019 22:05:00 17.1 C 84 % 14.38 C
267 16-08-2019 22:10:00 17.1 C 84 % 14.38 C
268 16-08-2019 22:15:00 17 C 85 % 14.46 C
269 16-08-2019 22:20:00 16.9 C 85 % 14.36 C
270 16-08-2019 22:25:00 16.9 C 85 % 14.36 C
271 16-08-2019 22:30:00 16.8 C 85 % 14.26 C
272 16-08-2019 22:35:00 16.8 C 85 % 14.26 C
273 16-08-2019 22:40:00 16.7 C 85 % 14.17 C
274 16-08-2019 22:45:00 16.7 C 85 % 14.17 C
275 16-08-2019 22:50:00 16.7 C 86 % 14.35 C
Sensor: Nr:Datum:Temp:Feuchte:Taupunkt:
Aussen-T/F 276 16-08-2019 22:55:00 16.7 C 86 % 14.35 C
277 16-08-2019 23:00:00 16.6 C 86 % 14.25 C
278 16-08-2019 23:05:00 16.5 C 86 % 14.15 C
279 16-08-2019 23:10:00 16.4 C 86 % 14.05 C
280 16-08-2019 23:15:00 16.3 C 86 % 13.95 C
281 16-08-2019 23:20:00 16.3 C 86 % 13.95 C
282 16-08-2019 23:25:00 16.2 C 87 % 14.03 C
283 16-08-2019 23:30:00 16.2 C 87 % 14.03 C
284 16-08-2019 23:35:00 16.2 C 87 % 14.03 C
285 16-08-2019 23:40:00 16.1 C 87 % 13.94 C
286 16-08-2019 23:45:00 16.1 C 87 % 13.94 C
287 16-08-2019 23:50:00 16 C 87 % 13.84 C
288 16-08-2019 23:55:00 15.9 C 87 % 13.74 C
289 17-08-2019 00:00:00 15.8 C 87 % 13.64 C
290 17-08-2019 00:05:00 15.7 C 87 % 13.54 C
291 17-08-2019 00:10:00 15.7 C 87 % 13.54 C
292 17-08-2019 00:15:00 15.6 C 87 % 13.45 C
293 17-08-2019 00:20:00 15.6 C 88 % 13.62 C
294 17-08-2019 00:25:00 15.6 C 88 % 13.62 C
295 17-08-2019 00:30:00 15.6 C 88 % 13.62 C
296 17-08-2019 00:35:00 15.7 C 89 % 13.89 C
297 17-08-2019 00:40:00 15.7 C 89 % 13.89 C
298 17-08-2019 00:45:00 15.7 C 88 % 13.72 C
299 17-08-2019 00:50:00 15.8 C 88 % 13.82 C
300 17-08-2019 00:55:00 15.8 C 88 % 13.82 C
Sensor: Nr:Datum:Temp:Feuchte:Taupunkt:
Aussen-T/F 301 17-08-2019 01:00:00 15.8 C 88 % 13.82 C
302 17-08-2019 01:05:00 15.8 C 88 % 13.82 C
303 17-08-2019 01:10:00 15.9 C 88 % 13.92 C
304 17-08-2019 01:15:00 15.9 C 89 % 14.09 C
305 17-08-2019 01:20:00 15.9 C 88 % 13.92 C
306 17-08-2019 01:25:00 15.9 C 88 % 13.92 C
307 17-08-2019 01:30:00 15.9 C 89 % 14.09 C
308 17-08-2019 01:35:00 15.9 C 88 % 13.92 C
309 17-08-2019 01:40:00 15.9 C 88 % 13.92 C
310 17-08-2019 01:45:00 15.8 C 88 % 13.82 C
311 17-08-2019 01:50:00 15.8 C 88 % 13.82 C
312 17-08-2019 01:55:00 15.9 C 89 % 14.09 C
313 17-08-2019 02:00:00 15.9 C 89 % 14.09 C
314 17-08-2019 02:05:00 15.8 C 88 % 13.82 C
315 17-08-2019 02:10:00 15.8 C 88 % 13.82 C
316 17-08-2019 02:15:00 15.8 C 88 % 13.82 C
317 17-08-2019 02:20:00 15.8 C 88 % 13.82 C
318 17-08-2019 02:25:00 15.8 C 89 % 13.99 C
319 17-08-2019 02:30:00 15.7 C 88 % 13.72 C
320 17-08-2019 02:35:00 15.7 C 89 % 13.89 C
321 17-08-2019 02:40:00 15.7 C 89 % 13.89 C
322 17-08-2019 02:45:00 15.7 C 89 % 13.89 C
323 17-08-2019 02:50:00 15.7 C 89 % 13.89 C
324 17-08-2019 02:55:00 15.8 C 90 % 14.16 C
325 17-08-2019 03:00:00 15.8 C 90 % 14.16 C
Sensor: Nr:Datum:Temp:Feuchte:Taupunkt:
Aussen-T/F 326 17-08-2019 03:05:00 15.8 C 90 % 14.16 C
327 17-08-2019 03:10:00 15.8 C 90 % 14.16 C
328 17-08-2019 03:15:00 15.8 C 90 % 14.16 C
329 17-08-2019 03:20:00 15.8 C 91 % 14.33 C
330 17-08-2019 03:25:00 15.8 C 91 % 14.33 C
331 17-08-2019 03:30:00 15.8 C 91 % 14.33 C
332 17-08-2019 03:35:00 15.8 C 92 % 14.5 C
333 17-08-2019 03:40:00 15.7 C 92 % 14.4 C
334 17-08-2019 03:45:00 15.7 C 92 % 14.4 C
335 17-08-2019 03:50:00 15.7 C 92 % 14.4 C
336 17-08-2019 03:55:00 15.7 C 92 % 14.4 C
337 17-08-2019 04:00:00 15.7 C 92 % 14.4 C
338 17-08-2019 04:05:00 15.7 C 93 % 14.57 C
339 17-08-2019 04:10:00 15.7 C 93 % 14.57 C
340 17-08-2019 04:15:00 15.7 C 93 % 14.57 C
341 17-08-2019 04:20:00 15.7 C 93 % 14.57 C
342 17-08-2019 04:25:00 15.7 C 93 % 14.57 C
343 17-08-2019 04:30:00 15.7 C 93 % 14.57 C
344 17-08-2019 04:35:00 15.7 C 93 % 14.57 C
345 17-08-2019 04:40:00 15.7 C 94 % 14.74 C
346 17-08-2019 04:45:00 15.7 C 94 % 14.74 C
347 17-08-2019 04:50:00 15.6 C 94 % 14.64 C
348 17-08-2019 04:55:00 15.7 C 94 % 14.74 C
349 17-08-2019 05:00:00 15.7 C 94 % 14.74 C
350 17-08-2019 05:05:00 15.7 C 94 % 14.74 C
Sensor: Nr:Datum:Temp:Feuchte:Taupunkt:
Aussen-T/F 351 17-08-2019 05:10:00 15.7 C 94 % 14.74 C
352 17-08-2019 05:15:00 15.7 C 94 % 14.74 C
353 17-08-2019 05:20:00 15.6 C 94 % 14.64 C
354 17-08-2019 05:25:00 15.6 C 94 % 14.64 C
355 17-08-2019 05:30:00 15.6 C 94 % 14.64 C
356 17-08-2019 05:35:00 15.6 C 94 % 14.64 C
357 17-08-2019 05:40:00 15.6 C 94 % 14.64 C
358 17-08-2019 05:45:00 15.6 C 94 % 14.64 C
359 17-08-2019 05:50:00 15.6 C 94 % 14.64 C
360 17-08-2019 05:55:00 15.6 C 94 % 14.64 C
361 17-08-2019 06:00:00 15.6 C 94 % 14.64 C
362 17-08-2019 06:05:00 15.6 C 94 % 14.64 C
363 17-08-2019 06:10:00 15.6 C 94 % 14.64 C
364 17-08-2019 06:15:00 15.6 C 94 % 14.64 C
365 17-08-2019 06:20:00 15.6 C 94 % 14.64 C
366 17-08-2019 06:25:00 15.6 C 94 % 14.64 C
367 17-08-2019 06:30:00 15.6 C 94 % 14.64 C
368 17-08-2019 06:35:00 15.7 C 94 % 14.74 C
369 17-08-2019 06:40:00 15.7 C 94 % 14.74 C
370 17-08-2019 06:45:00 15.7 C 94 % 14.74 C
371 17-08-2019 06:50:00 15.8 C 94 % 14.84 C
372 17-08-2019 06:55:00 15.8 C 94 % 14.84 C
373 17-08-2019 07:00:00 15.8 C 94 % 14.84 C
374 17-08-2019 07:05:00 15.8 C 94 % 14.84 C
375 17-08-2019 07:10:00 15.9 C 94 % 14.94 C
Sensor: Nr:Datum:Temp:Feuchte:Taupunkt:
Aussen-T/F 376 17-08-2019 07:15:00 16 C 94 % 15.03 C
377 17-08-2019 07:20:00 16.1 C 94 % 15.13 C
378 17-08-2019 07:25:00 16.1 C 94 % 15.13 C
379 17-08-2019 07:30:00 16.2 C 94 % 15.23 C
380 17-08-2019 07:35:00 16.2 C 94 % 15.23 C
381 17-08-2019 07:40:00 16.3 C 94 % 15.33 C
382 17-08-2019 07:45:00 16.3 C 94 % 15.33 C
383 17-08-2019 07:50:00 16.4 C 94 % 15.43 C
384 17-08-2019 07:55:00 16.5 C 94 % 15.53 C
385 17-08-2019 08:00:00 16.6 C 94 % 15.63 C
386 17-08-2019 08:05:00 16.6 C 94 % 15.63 C
387 17-08-2019 08:10:00 16.7 C 94 % 15.73 C
388 17-08-2019 08:15:00 16.7 C 94 % 15.73 C
389 17-08-2019 08:20:00 16.7 C 92 % 15.39 C
390 17-08-2019 08:25:00 16.8 C 92 % 15.49 C
391 17-08-2019 08:30:00 16.8 C 91 % 15.32 C
392 17-08-2019 08:35:00 16.9 C 90 % 15.25 C
393 17-08-2019 08:40:00 17.1 C 90 % 15.45 C
394 17-08-2019 08:45:00 17.3 C 88 % 15.29 C
395 17-08-2019 08:50:00 17.5 C 86 % 15.13 C
396 17-08-2019 08:55:00 17.8 C 84 % 15.06 C
397 17-08-2019 09:00:00 18.2 C 83 % 15.27 C
398 17-08-2019 09:05:00 18.5 C 80 % 14.99 C
399 17-08-2019 09:10:00 18.7 C 81 % 15.37 C
400 17-08-2019 09:15:00 18.7 C 81 % 15.37 C
Sensor: Nr:Datum:Temp:Feuchte:Taupunkt:
Aussen-T/F 401 17-08-2019 09:20:00 18.7 C 79 % 14.99 C
402 17-08-2019 09:25:00 18.7 C 79 % 14.99 C
403 17-08-2019 09:30:00 18.7 C 81 % 15.37 C
404 17-08-2019 09:35:00 18.7 C 80 % 15.18 C
405 17-08-2019 09:40:00 18.7 C 79 % 14.99 C
406 17-08-2019 09:45:00 18.8 C 80 % 15.28 C
407 17-08-2019 09:50:00 18.8 C 79 % 15.08 C
408 17-08-2019 09:55:00 18.8 C 80 % 15.28 C
409 17-08-2019 10:00:00 18.9 C 80 % 15.38 C
410 17-08-2019 10:05:00 18.9 C 80 % 15.38 C
411 17-08-2019 10:10:00 18.9 C 81 % 15.57 C
412 17-08-2019 10:15:00 19 C 81 % 15.67 C
413 17-08-2019 10:20:00 19.1 C 81 % 15.76 C
414 17-08-2019 10:25:00 19.1 C 80 % 15.57 C
415 17-08-2019 10:30:00 19.1 C 81 % 15.76 C
416 17-08-2019 10:35:00 19.1 C 80 % 15.57 C
417 17-08-2019 10:40:00 19.1 C 81 % 15.76 C
418 17-08-2019 10:45:00 19.1 C 82 % 15.96 C
419 17-08-2019 10:50:00 19 C 82 % 15.86 C
420 17-08-2019 10:55:00 18.9 C 84 % 16.14 C
421 17-08-2019 11:00:00 18.8 C 84 % 16.04 C
422 17-08-2019 11:05:00 18.8 C 86 % 16.41 C
423 17-08-2019 11:10:00 18.7 C 86 % 16.31 C
424 17-08-2019 11:15:00 18.6 C 86 % 16.21 C
425 17-08-2019 11:20:00 18.4 C 87 % 16.2 C
Sensor: Nr:Datum:Temp:Feuchte:Taupunkt:
Aussen-T/F 426 17-08-2019 11:25:00 18.4 C 88 % 16.38 C
427 17-08-2019 11:30:00 18.4 C 88 % 16.38 C
428 17-08-2019 11:35:00 18.4 C 88 % 16.38 C
429 17-08-2019 11:40:00 18.5 C 88 % 16.48 C
430 17-08-2019 11:45:00 18.6 C 87 % 16.39 C
431 17-08-2019 11:50:00 18.7 C 88 % 16.67 C
432 17-08-2019 11:55:00 18.8 C 86 % 16.41 C
433 17-08-2019 12:00:00 18.9 C 86 % 16.51 C
434 17-08-2019 12:05:00 18.9 C 87 % 16.69 C
435 17-08-2019 12:10:00 19 C 87 % 16.79 C
436 17-08-2019 12:15:00 18.9 C 87 % 16.69 C
437 17-08-2019 12:20:00 18.9 C 86 % 16.51 C
438 17-08-2019 12:25:00 19.1 C 86 % 16.7 C
439 17-08-2019 12:30:00 19.1 C 85 % 16.52 C
440 17-08-2019 12:35:00 19.3 C 85 % 16.72 C
441 17-08-2019 12:40:00 19.5 C 84 % 16.72 C
442 17-08-2019 12:45:00 19.7 C 84 % 16.92 C
443 17-08-2019 12:50:00 19.9 C 84 % 17.12 C
444 17-08-2019 12:55:00 20.1 C 81 % 16.74 C
445 17-08-2019 13:00:00 20.3 C 80 % 16.74 C
446 17-08-2019 13:05:00 20.5 C 79 % 16.73 C
447 17-08-2019 13:10:00 20.6 C 76 % 16.22 C
448 17-08-2019 13:15:00 20.5 C 78 % 16.53 C
449 17-08-2019 13:20:00 20.5 C 76 % 16.12 C
450 17-08-2019 13:25:00 20.6 C 77 % 16.43 C
Sensor: Nr:Datum:Temp:Feuchte:Taupunkt:
Aussen-T/F 451 17-08-2019 13:30:00 20.7 C 76 % 16.32 C
452 17-08-2019 13:35:00 20.8 C 76 % 16.41 C
453 17-08-2019 13:40:00 21 C 75 % 16.4 C
454 17-08-2019 13:45:00 21 C 74 % 16.19 C
455 17-08-2019 13:50:00 20.9 C 75 % 16.3 C
456 17-08-2019 13:55:00 20.8 C 74 % 16 C
457 17-08-2019 14:00:00 20.8 C 75 % 16.21 C
458 17-08-2019 14:05:00 20.8 C 76 % 16.41 C
459 17-08-2019 14:10:00 20.8 C 75 % 16.21 C
460 17-08-2019 14:15:00 20.9 C 74 % 16.09 C
461 17-08-2019 14:20:00 20.9 C 75 % 16.3 C
462 17-08-2019 14:25:00 21 C 76 % 16.61 C
463 17-08-2019 14:30:00 21.1 C 75 % 16.5 C
464 17-08-2019 14:35:00 21.1 C 75 % 16.5 C
465 17-08-2019 14:40:00 21.1 C 75 % 16.5 C
466 17-08-2019 14:45:00 21.1 C 74 % 16.29 C
467 17-08-2019 14:50:00 21.2 C 75 % 16.59 C
468 17-08-2019 14:55:00 21.2 C 74 % 16.38 C
469 17-08-2019 15:00:00 21.3 C 74 % 16.48 C
470 17-08-2019 15:05:00 21.4 C 74 % 16.57 C
471 17-08-2019 15:10:00 21.4 C 74 % 16.57 C
472 17-08-2019 15:15:00 21.4 C 74 % 16.57 C
473 17-08-2019 15:20:00 21.4 C 74 % 16.57 C
474 17-08-2019 15:25:00 21.3 C 74 % 16.48 C
475 17-08-2019 15:30:00 21.2 C 75 % 16.59 C
Sensor: Nr:Datum:Temp:Feuchte:Taupunkt:
Aussen-T/F 476 17-08-2019 15:35:00 21.2 C 77 % 17.01 C
477 17-08-2019 15:40:00 21.2 C 76 % 16.8 C
478 17-08-2019 15:45:00 21.3 C 75 % 16.69 C
479 17-08-2019 15:50:00 21.3 C 75 % 16.69 C
480 17-08-2019 15:55:00 21.4 C 76 % 16.99 C
481 17-08-2019 16:00:00 21.4 C 75 % 16.79 C
482 17-08-2019 16:05:00 21.4 C 75 % 16.79 C
483 17-08-2019 16:10:00 21.4 C 75 % 16.79 C
484 17-08-2019 16:15:00 21.3 C 75 % 16.69 C
485 17-08-2019 16:20:00 21.1 C 75 % 16.5 C
486 17-08-2019 16:25:00 20.8 C 76 % 16.41 C
487 17-08-2019 16:30:00 20.8 C 77 % 16.62 C
488 17-08-2019 16:35:00 20.7 C 76 % 16.32 C
489 17-08-2019 16:40:00 20.7 C 77 % 16.52 C
490 17-08-2019 16:45:00 20.8 C 77 % 16.62 C
491 17-08-2019 16:50:00 20.8 C 76 % 16.41 C
492 17-08-2019 16:55:00 20.8 C 77 % 16.62 C
493 17-08-2019 17:00:00 20.7 C 78 % 16.73 C
494 17-08-2019 17:05:00 20.7 C 79 % 16.93 C
495 17-08-2019 17:10:00 20.6 C 77 % 16.43 C
496 17-08-2019 17:15:00 20.5 C 77 % 16.33 C
497 17-08-2019 17:20:00 20.4 C 77 % 16.23 C
498 17-08-2019 17:25:00 20.4 C 76 % 16.03 C
499 17-08-2019 17:30:00 20.4 C 78 % 16.44 C
500 17-08-2019 17:35:00 20.4 C 77 % 16.23 C
Sensor: Nr:Datum:Temp:Feuchte:Taupunkt:
Aussen-T/F 501 17-08-2019 17:40:00 20.3 C 78 % 16.34 C
502 17-08-2019 17:45:00 20.3 C 79 % 16.54 C
503 17-08-2019 17:50:00 20.3 C 79 % 16.54 C
504 17-08-2019 17:55:00 20.3 C 80 % 16.74 C
505 17-08-2019 18:00:00 20.3 C 79 % 16.54 C
506 17-08-2019 18:05:00 20.3 C 80 % 16.74 C
507 17-08-2019 18:10:00 20.3 C 81 % 16.93 C
508 17-08-2019 18:15:00 20.2 C 82 % 17.03 C
509 17-08-2019 18:20:00 20.1 C 83 % 17.12 C
510 17-08-2019 18:25:00 20.1 C 83 % 17.12 C
511 17-08-2019 18:30:00 19.9 C 84 % 17.12 C
512 17-08-2019 18:35:00 19.8 C 85 % 17.21 C
513 17-08-2019 18:40:00 19.7 C 84 % 16.92 C
514 17-08-2019 18:45:00 19.7 C 85 % 17.11 C
515 17-08-2019 18:50:00 19.7 C 85 % 17.11 C
516 17-08-2019 18:55:00 19.6 C 86 % 17.19 C
517 17-08-2019 19:00:00 19.6 C 87 % 17.38 C
518 17-08-2019 19:05:00 19.5 C 87 % 17.28 C
519 17-08-2019 19:10:00 19.4 C 86 % 17 C
520 17-08-2019 19:15:00 19.3 C 87 % 17.08 C
521 17-08-2019 19:20:00 19.2 C 88 % 17.16 C
522 17-08-2019 19:25:00 19.1 C 88 % 17.07 C
523 17-08-2019 19:30:00 19.1 C 88 % 17.07 C
524 17-08-2019 19:35:00 19 C 89 % 17.15 C
525 17-08-2019 19:40:00 18.9 C 89 % 17.05 C
Sensor: Nr:Datum:Temp:Feuchte:Taupunkt:
Aussen-T/F 526 17-08-2019 19:45:00 18.9 C 90 % 17.22 C
527 17-08-2019 19:50:00 18.8 C 90 % 17.12 C
528 17-08-2019 19:55:00 18.7 C 90 % 17.03 C
529 17-08-2019 20:00:00 18.7 C 90 % 17.03 C
530 17-08-2019 20:05:00 18.6 C 90 % 16.93 C
531 17-08-2019 20:10:00 18.6 C 91 % 17.1 C
532 17-08-2019 20:15:00 18.4 C 91 % 16.9 C
533 17-08-2019 20:20:00 18.4 C 91 % 16.9 C
534 17-08-2019 20:25:00 18.3 C 91 % 16.81 C
535 17-08-2019 20:30:00 18.3 C 91 % 16.81 C
536 17-08-2019 20:35:00 18.2 C 91 % 16.71 C
537 17-08-2019 20:40:00 18.1 C 91 % 16.61 C
538 17-08-2019 20:45:00 18.1 C 92 % 16.78 C
539 17-08-2019 20:50:00 18.1 C 92 % 16.78 C
540 17-08-2019 20:55:00 18.1 C 92 % 16.78 C
541 17-08-2019 21:00:00 18 C 92 % 16.68 C
542 17-08-2019 21:05:00 17.9 C 92 % 16.58 C
543 17-08-2019 21:10:00 17.9 C 92 % 16.58 C
544 17-08-2019 21:15:00 17.9 C 92 % 16.58 C
545 17-08-2019 21:20:00 17.8 C 93 % 16.65 C
546 17-08-2019 21:25:00 17.8 C 93 % 16.65 C
547 17-08-2019 21:30:00 17.8 C 93 % 16.65 C
548 17-08-2019 21:35:00 17.8 C 93 % 16.65 C
549 17-08-2019 21:40:00 17.8 C 93 % 16.65 C
550 17-08-2019 21:45:00 17.8 C 93 % 16.65 C
Sensor: Nr:Datum:Temp:Feuchte:Taupunkt:
Aussen-T/F 551 17-08-2019 21:50:00 17.8 C 93 % 16.65 C
552 17-08-2019 21:55:00 17.8 C 93 % 16.65 C
553 17-08-2019 22:00:00 17.8 C 94 % 16.82 C
554 17-08-2019 22:05:00 17.8 C 94 % 16.82 C
555 17-08-2019 22:10:00 17.8 C 94 % 16.82 C
556 17-08-2019 22:15:00 17.8 C 94 % 16.82 C
557 17-08-2019 22:20:00 17.8 C 94 % 16.82 C
558 17-08-2019 22:25:00 17.8 C 94 % 16.82 C
559 17-08-2019 22:30:00 17.7 C 94 % 16.72 C
560 17-08-2019 22:35:00 17.7 C 94 % 16.72 C
561 17-08-2019 22:40:00 17.7 C 94 % 16.72 C
562 17-08-2019 22:45:00 17.7 C 94 % 16.72 C
563 17-08-2019 22:50:00 17.7 C 94 % 16.72 C
564 17-08-2019 22:55:00 17.6 C 94 % 16.62 C
565 17-08-2019 23:00:00 17.6 C 94 % 16.62 C
566 17-08-2019 23:05:00 17.6 C 94 % 16.62 C
567 17-08-2019 23:10:00 17.6 C 94 % 16.62 C
568 17-08-2019 23:15:00 17.6 C 94 % 16.62 C
569 17-08-2019 23:20:00 17.5 C 95 % 16.69 C
570 17-08-2019 23:25:00 17.5 C 95 % 16.69 C
571 17-08-2019 23:30:00 17.5 C 95 % 16.69 C
572 17-08-2019 23:35:00 17.5 C 95 % 16.69 C
573 17-08-2019 23:40:00 17.5 C 95 % 16.69 C
574 17-08-2019 23:45:00 17.5 C 95 % 16.69 C
575 17-08-2019 23:50:00 17.5 C 95 % 16.69 C
Sensor: Nr:Datum:Temp:Feuchte:Taupunkt:
Aussen-T/F 576 17-08-2019 23:55:00 17.4 C 95 % 16.59 C
577 18-08-2019 00:00:00 17.4 C 95 % 16.59 C
578 18-08-2019 00:05:00 17.4 C 95 % 16.59 C
579 18-08-2019 00:10:00 17.4 C 95 % 16.59 C
580 18-08-2019 00:15:00 17.4 C 95 % 16.59 C
581 18-08-2019 00:20:00 17.4 C 95 % 16.59 C
582 18-08-2019 00:25:00 17.4 C 95 % 16.59 C
583 18-08-2019 00:30:00 17.4 C 95 % 16.59 C
584 18-08-2019 00:35:00 17.4 C 95 % 16.59 C
585 18-08-2019 00:40:00 17.4 C 95 % 16.59 C
586 18-08-2019 00:45:00 17.4 C 95 % 16.59 C
587 18-08-2019 00:50:00 17.4 C 95 % 16.59 C
588 18-08-2019 00:55:00 17.4 C 95 % 16.59 C
589 18-08-2019 01:00:00 17.4 C 95 % 16.59 C
590 18-08-2019 01:05:00 17.4 C 95 % 16.59 C
591 18-08-2019 01:10:00 17.4 C 95 % 16.59 C
592 18-08-2019 01:15:00 17.4 C 95 % 16.59 C
593 18-08-2019 01:20:00 17.4 C 95 % 16.59 C
594 18-08-2019 01:25:00 17.4 C 96 % 16.76 C
595 18-08-2019 01:30:00 17.4 C 96 % 16.76 C
596 18-08-2019 01:35:00 17.4 C 96 % 16.76 C
597 18-08-2019 01:40:00 17.4 C 96 % 16.76 C
598 18-08-2019 01:45:00 17.4 C 96 % 16.76 C
599 18-08-2019 01:50:00 17.3 C 96 % 16.66 C
600 18-08-2019 01:55:00 17.3 C 96 % 16.66 C
Sensor: Nr:Datum:Temp:Feuchte:Taupunkt:
Aussen-T/F 601 18-08-2019 02:00:00 17.3 C 96 % 16.66 C
602 18-08-2019 02:05:00 17.3 C 96 % 16.66 C
603 18-08-2019 02:10:00 17.3 C 96 % 16.66 C
604 18-08-2019 02:15:00 17.2 C 96 % 16.56 C
605 18-08-2019 02:20:00 17.2 C 96 % 16.56 C
606 18-08-2019 02:25:00 17.2 C 96 % 16.56 C
607 18-08-2019 02:30:00 17.2 C 96 % 16.56 C
608 18-08-2019 02:35:00 17.2 C 96 % 16.56 C
609 18-08-2019 02:40:00 17.2 C 96 % 16.56 C
610 18-08-2019 02:45:00 17.2 C 96 % 16.56 C
611 18-08-2019 02:50:00 17.2 C 96 % 16.56 C
612 18-08-2019 02:55:00 17.2 C 96 % 16.56 C
613 18-08-2019 03:00:00 17.2 C 96 % 16.56 C
614 18-08-2019 03:05:00 17.2 C 96 % 16.56 C
615 18-08-2019 03:10:00 17.2 C 96 % 16.56 C
616 18-08-2019 03:15:00 17.2 C 96 % 16.56 C
617 18-08-2019 03:20:00 17.2 C 96 % 16.56 C
618 18-08-2019 03:25:00 17.2 C 96 % 16.56 C
619 18-08-2019 03:30:00 17.2 C 96 % 16.56 C
620 18-08-2019 03:35:00 17.2 C 96 % 16.56 C
621 18-08-2019 03:40:00 17.2 C 96 % 16.56 C
622 18-08-2019 03:45:00 17.2 C 96 % 16.56 C
623 18-08-2019 03:50:00 17.2 C 96 % 16.56 C
624 18-08-2019 03:55:00 17.2 C 96 % 16.56 C
625 18-08-2019 04:00:00 17.2 C 96 % 16.56 C
Sensor: Nr:Datum:Temp:Feuchte:Taupunkt:
Aussen-T/F 626 18-08-2019 04:05:00 17.2 C 96 % 16.56 C
627 18-08-2019 04:10:00 17.2 C 96 % 16.56 C
628 18-08-2019 04:15:00 17.2 C 96 % 16.56 C
629 18-08-2019 04:20:00 17.1 C 96 % 16.46 C
630 18-08-2019 04:25:00 17.1 C 96 % 16.46 C
631 18-08-2019 04:30:00 17.1 C 96 % 16.46 C
632 18-08-2019 04:35:00 17.2 C 96 % 16.56 C
633 18-08-2019 04:40:00 17.2 C 96 % 16.56 C
634 18-08-2019 04:45:00 17.2 C 96 % 16.56 C
635 18-08-2019 04:50:00 17.2 C 96 % 16.56 C
636 18-08-2019 04:55:00 17.3 C 96 % 16.66 C
637 18-08-2019 05:00:00 17.3 C 96 % 16.66 C
638 18-08-2019 05:05:00 17.3 C 96 % 16.66 C
639 18-08-2019 05:10:00 17.3 C 97 % 16.82 C
640 18-08-2019 05:15:00 17.3 C 97 % 16.82 C
641 18-08-2019 05:20:00 17.3 C 97 % 16.82 C
642 18-08-2019 05:25:00 17.3 C 97 % 16.82 C
643 18-08-2019 05:30:00 17.3 C 97 % 16.82 C
644 18-08-2019 05:35:00 17.3 C 97 % 16.82 C
645 18-08-2019 05:40:00 17.3 C 96 % 16.66 C
646 18-08-2019 05:45:00 17.3 C 97 % 16.82 C
647 18-08-2019 05:50:00 17.3 C 97 % 16.82 C
648 18-08-2019 05:55:00 17.3 C 97 % 16.82 C
649 18-08-2019 06:00:00 17.3 C 97 % 16.82 C
650 18-08-2019 06:05:00 17.3 C 97 % 16.82 C
Sensor: Nr:Datum:Temp:Feuchte:Taupunkt:
Aussen-T/F 651 18-08-2019 06:10:00 17.3 C 97 % 16.82 C
652 18-08-2019 06:15:00 17.3 C 97 % 16.82 C
653 18-08-2019 06:20:00 17.3 C 97 % 16.82 C
654 18-08-2019 06:25:00 17.3 C 97 % 16.82 C
655 18-08-2019 06:30:00 17.3 C 97 % 16.82 C
656 18-08-2019 06:35:00 17.3 C 97 % 16.82 C
657 18-08-2019 06:40:00 17.2 C 97 % 16.72 C
658 18-08-2019 06:45:00 17.2 C 97 % 16.72 C
659 18-08-2019 06:50:00 17.2 C 97 % 16.72 C
660 18-08-2019 06:55:00 17.2 C 97 % 16.72 C
661 18-08-2019 07:00:00 17.2 C 97 % 16.72 C
662 18-08-2019 07:05:00 17.2 C 97 % 16.72 C
663 18-08-2019 07:10:00 17.2 C 97 % 16.72 C
664 18-08-2019 07:15:00 17.3 C 97 % 16.82 C
665 18-08-2019 07:20:00 17.3 C 97 % 16.82 C
666 18-08-2019 07:25:00 17.3 C 97 % 16.82 C
667 18-08-2019 07:30:00 17.4 C 97 % 16.92 C
668 18-08-2019 07:35:00 17.4 C 97 % 16.92 C
669 18-08-2019 07:40:00 17.4 C 97 % 16.92 C
670 18-08-2019 07:45:00 17.4 C 97 % 16.92 C
671 18-08-2019 07:50:00 17.5 C 97 % 17.02 C
672 18-08-2019 07:55:00 17.5 C 97 % 17.02 C
673 18-08-2019 08:00:00 17.6 C 97 % 17.12 C
674 18-08-2019 08:05:00 17.6 C 97 % 17.12 C
675 18-08-2019 08:10:00 17.7 C 97 % 17.22 C
Sensor: Nr:Datum:Temp:Feuchte:Taupunkt:
Aussen-T/F 676 18-08-2019 08:15:00 17.8 C 97 % 17.32 C
677 18-08-2019 08:20:00 17.9 C 97 % 17.42 C
678 18-08-2019 08:25:00 17.9 C 97 % 17.42 C
679 18-08-2019 08:30:00 18 C 97 % 17.52 C
680 18-08-2019 08:35:00 18.1 C 97 % 17.62 C
681 18-08-2019 08:40:00 18.1 C 97 % 17.62 C
682 18-08-2019 08:45:00 18.1 C 97 % 17.62 C
683 18-08-2019 08:50:00 18.2 C 97 % 17.72 C
684 18-08-2019 08:55:00 18.2 C 97 % 17.72 C
685 18-08-2019 09:00:00 18.3 C 97 % 17.82 C
686 18-08-2019 09:05:00 18.4 C 97 % 17.91 C
687 18-08-2019 09:10:00 18.6 C 97 % 18.11 C
688 18-08-2019 09:15:00 18.7 C 97 % 18.21 C
689 18-08-2019 09:20:00 18.7 C 97 % 18.21 C
690 18-08-2019 09:25:00 18.8 C 98 % 18.48 C
691 18-08-2019 09:30:00 18.9 C 98 % 18.58 C
692 18-08-2019 09:35:00 19.1 C 97 % 18.61 C
693 18-08-2019 09:40:00 19.2 C 97 % 18.71 C
694 18-08-2019 09:45:00 19.2 C 98 % 18.88 C
695 18-08-2019 09:50:00 19.2 C 97 % 18.71 C
696 18-08-2019 09:55:00 19.2 C 97 % 18.71 C
697 18-08-2019 10:00:00 19.3 C 97 % 18.81 C
698 18-08-2019 10:05:00 19.4 C 97 % 18.91 C
699 18-08-2019 10:10:00 19.6 C 98 % 19.28 C
700 18-08-2019 10:15:00 19.6 C 97 % 19.11 C
Sensor: Nr:Datum:Temp:Feuchte:Taupunkt:
Aussen-T/F 701 18-08-2019 10:20:00 19.6 C 97 % 19.11 C
702 18-08-2019 10:25:00 19.7 C 97 % 19.21 C
703 18-08-2019 10:30:00 19.9 C 97 % 19.41 C
704 18-08-2019 10:35:00 20.1 C 98 % 19.77 C
705 18-08-2019 10:40:00 20.3 C 98 % 19.97 C
706 18-08-2019 10:45:00 20.4 C 98 % 20.07 C
707 18-08-2019 10:50:00 20.6 C 98 % 20.27 C
708 18-08-2019 10:55:00 20.7 C 97 % 20.21 C
709 18-08-2019 11:00:00 21.1 C 97 % 20.6 C
710 18-08-2019 11:05:00 21.6 C 98 % 21.27 C
711 18-08-2019 11:10:00 21.7 C 98 % 21.37 C
712 18-08-2019 11:15:00 21.4 C 96 % 20.74 C
713 18-08-2019 11:20:00 21.5 C 94 % 20.49 C
714 18-08-2019 11:25:00 21.8 C 95 % 20.96 C
715 18-08-2019 11:30:00 22 C 93 % 20.81 C
716 18-08-2019 11:35:00 22.3 C 92 % 20.94 C
717 18-08-2019 11:40:00 22.7 C 90 % 20.97 C
718 18-08-2019 11:45:00 23.1 C 87 % 20.82 C
719 18-08-2019 11:50:00 23.4 C 84 % 20.54 C
720 18-08-2019 11:55:00 23.7 C 81 % 20.24 C
721 18-08-2019 12:00:00 23.8 C 81 % 20.34 C
722 18-08-2019 12:05:00 23.8 C 80 % 20.14 C
723 18-08-2019 12:10:00 23.9 C 79 % 20.03 C
724 18-08-2019 12:15:00 24.1 C 79 % 20.23 C
725 18-08-2019 12:20:00 24.2 C 77 % 19.91 C
Sensor: Nr:Datum:Temp:Feuchte:Taupunkt:
Aussen-T/F 726 18-08-2019 12:25:00 24.2 C 78 % 20.12 C
727 18-08-2019 12:30:00 24.2 C 76 % 19.7 C
728 18-08-2019 12:35:00 24.1 C 76 % 19.6 C
729 18-08-2019 12:40:00 24.1 C 77 % 19.81 C
730 18-08-2019 12:45:00 24.2 C 78 % 20.12 C
731 18-08-2019 12:50:00 24.1 C 75 % 19.39 C
732 18-08-2019 12:55:00 24.2 C 77 % 19.91 C
733 18-08-2019 13:00:00 24.2 C 76 % 19.7 C
734 18-08-2019 13:05:00 24.2 C 77 % 19.91 C
735 18-08-2019 13:10:00 24.2 C 75 % 19.49 C
736 18-08-2019 13:15:00 24.1 C 76 % 19.6 C
737 18-08-2019 13:20:00 24.2 C 78 % 20.12 C
738 18-08-2019 13:25:00 24.2 C 77 % 19.91 C
739 18-08-2019 13:30:00 24.3 C 76 % 19.8 C
740 18-08-2019 13:35:00 24.4 C 76 % 19.89 C
741 18-08-2019 13:40:00 24.6 C 75 % 19.87 C
742 18-08-2019 13:45:00 24.7 C 74 % 19.75 C
743 18-08-2019 13:50:00 24.8 C 76 % 20.28 C
744 18-08-2019 13:55:00 24.9 C 74 % 19.94 C
745 18-08-2019 14:00:00 25 C 75 % 20.26 C
746 18-08-2019 14:05:00 24.9 C 75 % 20.16 C
747 18-08-2019 14:10:00 24.9 C 75 % 20.16 C
748 18-08-2019 14:15:00 24.8 C 75 % 20.06 C
749 18-08-2019 14:20:00 24.7 C 74 % 19.75 C
750 18-08-2019 14:25:00 24.6 C 75 % 19.87 C
Sensor: Nr:Datum:Temp:Feuchte:Taupunkt:
Aussen-T/F 751 18-08-2019 14:30:00 24.6 C 75 % 19.87 C
752 18-08-2019 14:35:00 24.7 C 76 % 20.18 C
753 18-08-2019 14:40:00 24.8 C 75 % 20.06 C
754 18-08-2019 14:45:00 24.7 C 74 % 19.75 C
755 18-08-2019 14:50:00 24.6 C 74 % 19.66 C
756 18-08-2019 14:55:00 24.4 C 75 % 19.68 C
757 18-08-2019 15:00:00 24.4 C 75 % 19.68 C
758 18-08-2019 15:05:00 24.3 C 75 % 19.58 C
759 18-08-2019 15:10:00 24.3 C 77 % 20.01 C
760 18-08-2019 15:15:00 24.3 C 79 % 20.42 C
761 18-08-2019 15:20:00 24.6 C 77 % 20.3 C
762 18-08-2019 15:25:00 24.9 C 77 % 20.59 C
763 18-08-2019 15:30:00 25.1 C 77 % 20.78 C
764 18-08-2019 15:35:00 25.1 C 75 % 20.35 C
765 18-08-2019 15:40:00 24.9 C 74 % 19.94 C
766 18-08-2019 15:45:00 24.8 C 75 % 20.06 C
767 18-08-2019 15:50:00 24.9 C 75 % 20.16 C
768 18-08-2019 15:55:00 24.8 C 74 % 19.85 C
769 18-08-2019 16:00:00 24.8 C 74 % 19.85 C
770 18-08-2019 16:05:00 24.9 C 74 % 19.94 C
771 18-08-2019 16:10:00 25.2 C 74 % 20.23 C
772 18-08-2019 16:15:00 25.2 C 72 % 19.79 C
773 18-08-2019 16:20:00 25.1 C 73 % 19.92 C
774 18-08-2019 16:25:00 25.1 C 73 % 19.92 C
775 18-08-2019 16:30:00 25.2 C 75 % 20.45 C
Sensor: Nr:Datum:Temp:Feuchte:Taupunkt:
Aussen-T/F 776 18-08-2019 16:35:00 25.2 C 71 % 19.56 C
777 18-08-2019 16:40:00 25 C 71 % 19.37 C
778 18-08-2019 16:45:00 24.9 C 73 % 19.72 C
779 18-08-2019 16:50:00 24.7 C 71 % 19.09 C
780 18-08-2019 16:55:00 24.6 C 72 % 19.21 C
781 18-08-2019 17:00:00 24.5 C 73 % 19.34 C
782 18-08-2019 17:05:00 24.7 C 73 % 19.53 C
783 18-08-2019 17:10:00 25.1 C 73 % 19.92 C
784 18-08-2019 17:15:00 25.3 C 71 % 19.66 C
785 18-08-2019 17:20:00 25.3 C 71 % 19.66 C
786 18-08-2019 17:25:00 25.2 C 70 % 19.34 C
787 18-08-2019 17:30:00 25 C 68 % 18.68 C
788 18-08-2019 17:35:00 24.6 C 71 % 18.99 C
789 18-08-2019 17:40:00 24.1 C 71 % 18.51 C
790 18-08-2019 17:45:00 23.6 C 72 % 18.26 C
791 18-08-2019 17:50:00 22.9 C 77 % 18.65 C
792 18-08-2019 17:55:00 21.9 C 83 % 18.88 C
793 18-08-2019 18:00:00 21.2 C 86 % 18.76 C
794 18-08-2019 18:05:00 20.8 C 88 % 18.74 C
795 18-08-2019 18:10:00 20.6 C 90 % 18.9 C
796 18-08-2019 18:15:00 20.4 C 91 % 18.88 C
797 18-08-2019 18:20:00 20.3 C 92 % 18.96 C
798 18-08-2019 18:25:00 20.3 C 92 % 18.96 C
799 18-08-2019 18:30:00 20.3 C 93 % 19.13 C
800 18-08-2019 18:35:00 20.3 C 93 % 19.13 C
Sensor: Nr:Datum:Temp:Feuchte:Taupunkt:
Aussen-T/F 801 18-08-2019 18:40:00 20.4 C 93 % 19.23 C
802 18-08-2019 18:45:00 20.4 C 94 % 19.4 C
803 18-08-2019 18:50:00 20.5 C 94 % 19.5 C
804 18-08-2019 18:55:00 20.4 C 94 % 19.4 C
805 18-08-2019 19:00:00 20.4 C 94 % 19.4 C
806 18-08-2019 19:05:00 20.3 C 93 % 19.13 C
807 18-08-2019 19:10:00 20.2 C 93 % 19.03 C
808 18-08-2019 19:15:00 20.2 C 94 % 19.2 C
809 18-08-2019 19:20:00 20.1 C 94 % 19.1 C
810 18-08-2019 19:25:00 20 C 94 % 19 C
811 18-08-2019 19:30:00 20 C 94 % 19 C
812 18-08-2019 19:35:00 19.9 C 94 % 18.91 C
813 18-08-2019 19:40:00 19.8 C 94 % 18.81 C
814 18-08-2019 19:45:00 19.8 C 94 % 18.81 C
815 18-08-2019 19:50:00 19.7 C 94 % 18.71 C
816 18-08-2019 19:55:00 19.7 C 94 % 18.71 C
817 18-08-2019 20:00:00 19.6 C 94 % 18.61 C
818 18-08-2019 20:05:00 19.6 C 95 % 18.78 C
819 18-08-2019 20:10:00 19.6 C 95 % 18.78 C
820 18-08-2019 20:15:00 19.6 C 95 % 18.78 C
821 18-08-2019 20:20:00 19.5 C 94 % 18.51 C
822 18-08-2019 20:25:00 19.4 C 94 % 18.41 C
823 18-08-2019 20:30:00 19.3 C 94 % 18.31 C
824 18-08-2019 20:35:00 19.4 C 95 % 18.58 C
825 18-08-2019 20:40:00 19.4 C 95 % 18.58 C
Sensor: Nr:Datum:Temp:Feuchte:Taupunkt:
Aussen-T/F 826 18-08-2019 20:45:00 19.4 C 95 % 18.58 C
827 18-08-2019 20:50:00 19.4 C 95 % 18.58 C
828 18-08-2019 20:55:00 19.3 C 95 % 18.48 C
829 18-08-2019 21:00:00 19.3 C 95 % 18.48 C
830 18-08-2019 21:05:00 19.3 C 95 % 18.48 C
831 18-08-2019 21:10:00 19.2 C 95 % 18.38 C
832 18-08-2019 21:15:00 19.1 C 94 % 18.11 C
833 18-08-2019 21:20:00 18.8 C 94 % 17.81 C
834 18-08-2019 21:25:00 18.8 C 94 % 17.81 C
835 18-08-2019 21:30:00 18.7 C 94 % 17.71 C
836 18-08-2019 21:35:00 18.7 C 94 % 17.71 C
837 18-08-2019 21:40:00 18.6 C 94 % 17.62 C
838 18-08-2019 21:45:00 18.4 C 94 % 17.42 C
839 18-08-2019 21:50:00 18.4 C 94 % 17.42 C
840 18-08-2019 21:55:00 18.3 C 95 % 17.48 C
841 18-08-2019 22:00:00 18.2 C 95 % 17.39 C
842 18-08-2019 22:05:00 18.2 C 95 % 17.39 C
843 18-08-2019 22:10:00 18.1 C 95 % 17.29 C
844 18-08-2019 22:15:00 18 C 95 % 17.19 C
845 18-08-2019 22:20:00 17.9 C 95 % 17.09 C
846 18-08-2019 22:25:00 17.8 C 95 % 16.99 C
847 18-08-2019 22:30:00 17.6 C 94 % 16.62 C
848 18-08-2019 22:35:00 17.5 C 94 % 16.52 C
849 18-08-2019 22:40:00 17.3 C 94 % 16.33 C
850 18-08-2019 22:45:00 17.2 C 94 % 16.23 C
Sensor: Nr:Datum:Temp:Feuchte:Taupunkt:
Aussen-T/F 851 18-08-2019 22:50:00 17.1 C 94 % 16.13 C
852 18-08-2019 22:55:00 16.9 C 94 % 15.93 C
853 18-08-2019 23:00:00 16.8 C 95 % 15.99 C
854 18-08-2019 23:05:00 16.8 C 95 % 15.99 C
855 18-08-2019 23:10:00 16.7 C 95 % 15.9 C
856 18-08-2019 23:15:00 16.7 C 95 % 15.9 C
857 18-08-2019 23:20:00 16.7 C 95 % 15.9 C
858 18-08-2019 23:25:00 16.7 C 95 % 15.9 C
859 18-08-2019 23:30:00 16.6 C 95 % 15.8 C
860 18-08-2019 23:35:00 16.6 C 95 % 15.8 C
861 18-08-2019 23:40:00 16.5 C 95 % 15.7 C
862 18-08-2019 23:45:00 16.4 C 95 % 15.6 C
863 18-08-2019 23:50:00 16.3 C 95 % 15.5 C
864 18-08-2019 23:55:00 16.3 C 95 % 15.5 C

Legende:
   Min
   Max


Maximal/Minimal-Werte vom 23.02.2003 - 19.08.2019

Sensor Min Max Avg
Temp
(Aussen-T/F)
-16.4 °C
20-12-2009  01:30:01
40.4 °C
25-07-2019  16:20:00
11.22 °C
Feuchte
(Aussen-T/F)
18 %
17-07-2015  15:55:00
100 %
07-10-2012  03:05:00
76.99 %

Die Daten stammen von einer Davis Vantage Pro 2 Wetter-Station und werden unter Linux mit der Software wview2wettercgi und aufbereitet. Alle Angaben erfolgen ohne Gewähr für ihre Vollständigkeit oder Richtigkeit.
Kontakt: Rainer Krienke krienke@uni-koblenz.de . Meine Webseiten an der Uni Koblenz oder privat.
Version: $Revision: 0.78 $